Regional Weather Roundup
Issued by NWS

Home | Current Version | Previous Version | Text Only | Print | Product List | Glossary On
Versions: 1 2 3 4 5 6 7 8 9 10 11 12 13 14 15 16 17 18 19 20 21 22 23 24 25 26 27 28 29 30 31 32 33 34 35 36 37 38 39 40 41 42 43 44 45 46 47 48 49 50
000
ASUS43 KLSX 102010
RWRMO

WEATHER SUMMARY FOR MISSOURI
NATIONAL WEATHER SERVICE SPRINGFIELD MO
200 PM CST SAT DEC 10 2016

NOTE: "FAIR" INDICATES FEW OR NO CLOUDS BELOW 12,000 FEET WITH NO
       SIGNIFICANT WEATHER AND/OR OBSTRUCTIONS TO VISIBILITY.
       CURRENT SKY AND/OR WEATHER CONDITIONS ARE NOT AVAILABLE FOR
       CHILLICOTHE AND FARMINGTON.

MOZ001>031-035>038-043-044-053-054-102100-
...NORTHERN AND WESTERN MISSOURI...

CITY           SKY/WX    TMP DP  RH WIND       PRES   REMARKS
KANSAS CTY INT CLOUDY    34  18  52 SE14      30.21F WCI  25
KANSAS C DTWN  CLOUDY    37  20  50 SE9       30.23F
LEE`S SUMMIT   LGT SNOW  33  25  72 S12       30.23F WCI  24
ST JOSEPH      CLOUDY    34  17  50 SE14      30.21F WCI  25
CHILLICOTHE      N/A     31  16  54 SE9       30.29F WCI  23
KIRKSVILLE     CLOUDY    31  14  49 SE15      30.31F WCI  20

$$
MOZ066>068-077>081-088>096-101>105-102100-
...SOUTHWEST MISSOURI...

CITY           SKY/WX    TMP DP  RH WIND       PRES   REMARKS
SPRINGFIELD    CLOUDY    39  20  46 SE14      30.25F
JOPLIN         CLOUDY    43  12  28 S14       30.23F
BRANSON        CLOUDY    39  18  41 SE14      30.30F

$$
MOZ032>034-039>042-045>050-055>058-069>072-102100-
...CENTRAL MISSOURI...

CITY           SKY/WX    TMP DP  RH WIND       PRES   REMARKS
COLUMBIA       CLOUDY    33  16  49 SE12      30.32F WCI  24
JEFFERSON CITY CLOUDY    34  17  50 SE7       30.34F WCI  28
ROLLA          CLOUDY    33  18  53 SE10      30.32F WCI  25
SEDALIA        CLOUDY    39  16  39 SE12      30.29F
WHITEMAN AFB   CLOUDY    38  16  42 S8        30.26F
WARRENSBURG    CLOUDY    36  21  55 SE7       30.26F WCI  30
OSAGE BEACH    CLOUDY    38  18  44 SE10      30.31F

$$
MOZ051-052-059>065-102100-
...EAST CENTRAL MISSOURI...

CITY           SKY/WX    TMP DP  RH WIND       PRES   REMARKS
ST LOUIS INTL  CLOUDY    35  16  45 SE9       30.40F WCI  28
SPIRIT OF STL  CLOUDY    34  17  50 S6        30.40F WCI  29
ST CHARLES     CLOUDY    33  18  53 SE9       30.41F WCI  25

$$
MOZ072>076-082>087-097>100-106>115-102100-
...SOUTH CENTRAL AND SOUTHEAST MISSOURI...

CITY           SKY/WX    TMP DP  RH WIND       PRES   REMARKS
CAPE GIRARDEAU CLOUDY    37  19  48 SE8       30.46F
FARMINGTON     CLOUDY    33  20  58 S12       30.40F WCI  24
POPLAR BLUFF   CLOUDY    36  21  54 S9        30.45F WCI  29
WEST PLAINS    CLOUDY    32  18  56 S10       30.38F WCI  24

$$




USA.gov is the U.S. government's official web portal to all federal, state and local government web resources and services.